AirNav   Air Wisconsin pilot careers
 
 625 users online  

C08 Silver West Airport
Westcliffe, Colorado, USA

GOING TO WESTCLIFFE?


FAA INFORMATION EFFECTIVE 16 AUGUST 2018

Location

FAA Identifier: C08
Lat/Long: 38-00-47.8000N / 105-22-27.3800W
38-00.796667N / 105-22.456333W
38.0132778 / -105.3742722
(estimated)
Elevation: 8290 ft. / 2527 m (estimated)
Variation: 11E (1985)
From city: 9 miles SE of WESTCLIFFE, CO
Time zone: UTC -6 (UTC -7 during Standard Time)
Zip code: 81252

Airport Operations

Airport use: Open to the public
Activation date: 04/1973
Control tower: no
ARTCC: DENVER CENTER
FSS: DENVER FLIGHT SERVICE STATION
NOTAMs facility: DEN (NOTAM-D service available)
Attendance: UNATNDD
Wind indicator: yes
Segmented circle: no

Airport Communications

CTAF: 122.9

Airport Services

Fuel available: 100LL
24 HR SELF SERVE FUEL.
Parking: tiedowns
Airframe service: NONE
Powerplant service: NONE
Bottled oxygen: NONE
Bulk oxygen: NONE

Runway Information

Runway 13/31

Dimensions: 6954 x 55 ft. / 2120 x 17 m
Surface: asphalt, in good condition
HAS VARYING TERRAIN HEIGHTS FROM -5 TO +12 FT ALONG FULL LENGTH OF RY INSIDE OF PRIMARY SURFACE.
RUNWAY 13  RUNWAY 31
Latitude: 38-01.282500N38-00.310833N
Longitude: 105-22.840000W105-22.072667W
Elevation: 8274.0 ft.
Traffic pattern: rightleft
Markings: basic, in good conditionbasic, in good condition
Obstructions: none12 ft. gnd, 200 ft. from runway
HAS +12 FT TERRAIN 120 FT FM THLD 0B.

Airport Ownership and Management from official FAA records

Ownership: Publicly-owned
Owner: CUSTER COUNTY, COLORADO
360 CR 310, P.O. BOX 150
WESTCLIFFE, CO 81252
Phone 719-783-2695
Manager: ROBERT JOLEY
P.O. BOX 150
WESTCLIFFE, CO 81252
Phone 719-783-2286

Airport Operational Statistics

Aircraft based on the field: 11
Single engine airplanes: 9
Multi engine airplanes: 1
Gliders airplanes: 1
  • FREQUENT GLIDER USE.
    
Aircraft operations: avg 86/week *
60% local general aviation
40% transient general aviation
* for 12-month period ending 31 December 2014

Additional Remarks

RY 13/31 HAS +15 FT HWY 120 FT WEST OF & PARALLEL TO CNTRLN FULL LENGTH, +4 FT FENCE 100 FT WEST OF & PARALLEL TO CNTRLN FULL LENGTH.
OCCASIONAL DEER & ELK ON RY 13/31.
PUBLIC USE TELEPHONE AND FREE WIFI AVBL.
BE ALERT; INTENSIVE USAF STUDENT TRAINING IN VICINITY OF COLORADO SPRINGS & PUEBLO COLORADO.

Instrument Procedures

There are no published instrument procedures at C08.

Some nearby airports with instrument procedures:

1V6 - Fremont County Airport (28 nm NE)
4V1 - Spanish Peaks Airfield (34 nm SE)
KALS - San Luis Valley Regional Airport/Bergman Field (42 nm SW)
KMVI - Monte Vista Municipal Airport (43 nm SW)
KPUB - Pueblo Memorial Airport (45 nm E)
 
Loc | Ops | Rwys | IFR | FBO | Links
Com | Nav | Svcs | Stats | Notes


 
Area around C08 (Silver West Airport)
 
Road maps at: MapQuest Bing Google
 
Aerial photo
WARNING: Photo may not be current or correct
Aerial photo of C08 (Silver West Airport)
Photo by David Newcomer
Photo taken 31-Mar-2012
from 13,500' looking northwest.

Do you have a better or more recent aerial photo of Silver West Airport that you would like to share? If so, please send us your photo.

 
Sectional chart

 
Airport distance calculator
Flying to Silver West Airport? Find the distance to fly.

From to C08

Sunrise and sunset
Times for 20-Aug-2018
 Local
(UTC-6)
 Zulu
(UTC)
Morning civil twilight05:5411:54
Sunrise06:2212:22
Sunset19:4801:48
Evening civil twilight20:1502:15

Current date and time
Zulu (UTC)  21-Aug-2018 04:45:11
Local (UTC-6)  20-Aug-2018 22:45:11
 
METAR
K04V 
38nm W 
210436Z AUTO 00000KT 10SM CLR 17/02 A3033 RMK AO2 PWINO
KALS 
42nm SW 
210352Z AUTO 19009KT 10SM CLR 17/04 A3029 RMK AO2 SLP170 T01720039
KPUB 
44nm E 
210353Z 10004KT 6SM HZ OVC075 21/11 A3023 RMK AO2 SLP184 T02060106 $
KANK 
45nm NW 
210435Z AUTO 14009G16KT 10SM CLR 17/09 A3043 RMK AO1 T01740092
KFCS 
49nm NE 
210358Z AUTO 19005KT 10SM FEW060 17/11 A3030 RMK AO2 SLP222 T01700108 $
KRCV 
50nm W 
210435Z AUTO 29009KT 10SM SCT110 19/04 A3033 RMK AO2 T01900042
TAF
KALS 
42nm SW 
201727Z 2018/2118 17010KT P6SM SKC FM202000 21009KT P6SM FEW100 FEW200 FM210100 15011KT P6SM FEW100 SCT200 FM210900 VRB05KT P6SM FEW100
KPUB 
44nm E 
210308Z 2103/2124 08006KT 6SM FU FEW250 FM210700 04007KT P6SM SCT250 FM211700 13005KT P6SM SCT250 FM211900 12010KT P6SM VCTS FEW100CB SCT150 FM212200 10012KT P6SM VCTS SCT080CB BKN150
KFCS 
49nm NE 
210206Z 2102/2203 15009KT 9000 HZ FEW050 SCT250 QNH3020INS BECMG 2108/2109 35009KT 9999 NSW FEW100 SCT250 QNH3024INS BECMG 2111/2112 VRB06KT 9999 FEW100 BKN180 QNH3026INS BECMG 2117/2118 13009KT 9999 FEW090 SCT120 BKN180 QNH3028INS BECMG 2121/2122 VRB12G20KT 9999 VCTS SCT090CB SCT120 BKN180 QNH3029INS TX25/2123Z TN14/2112Z
NOTAMs
Click for the latest NOTAMs
NOTAMs are issued by the DoD/FAA and will open in a separate window not controlled by AirNav.

 

 
 

FBO, Fuel Providers, and Aircraft Ground Support

  
 Business Name 
 
 Contact 
 
 Services / Description 
 
Fuel Prices
 
Comments
  
 SilverWest/Custer County Airport
122.90
719-783-2695
[web site]
[email]
Silver West Airport is located in the beautiful rocky mountains. At the base of both the Sangre de Cristo Mountain Range and the Wet Mountian Range.

More info about SilverWest/Custer County Airport
Phillips 66
100LL
SS $4.55 
 Updated 05-Jul-2018
 
   2 read write
SS=Self service
Update Fuel Prices
 

Would you like to see your business listed on this page?

 If your business provides an interesting product or service to pilots, flight crews, aircraft, or users of the Silver West Airport, you should consider listing it here.  To start the listing process, click on the button below
 
Add a business
 

Other Pages about Silver West Airport

silverwestairport.custercountygov.com
 
Update a link
 
Copyright © AirNav, LLC. All rights reserved. Privacy Policy  Contact